Regional Weather Roundup
Issued by NWS

Home | Current Version | Previous Version | Graphics & Text | Print | Product List | Glossary Off
Versions: 1 2 3 4 5 6 7 8 9 10 11 12 13 14 15 16 17 18 19 20 21 22 23 24 25 26 27 28 29 30 31 32 33 34 35 36 37 38 39 40 41 42 43 44 45 46 47 48 49 50

000
ASUS43 KDMX 251807
RWRIA

WEATHER ROUNDUP FOR IOWA
NATIONAL WEATHER SERVICE DES MOINES IA
100 PM CDT MON MAY 25 2015

NOTE: "FAIR" INDICATES FEW OR NO CLOUDS BELOW 12,000 FEET WITH NO
SIGNIFICANT WEATHER AND/OR OBSTRUCTIONS TO VISIBILITY.

* - THESE STATIONS ARE NOT NWS STATIONS...THUS NOT UNDER NWS
QUALITY CONTROL.  THEY ALSO DO NOT REPORT WEATHER SUCH
AS PRECIPITATION OR FOG.

IAZ001>003-012>014-020>022-031>034-043>046-251900-
   NORTHWEST IOWA

CITY           SKY/WX    TMP DP  RH WIND       PRES   REMARKS
CARROLL *      SUNNY     75  59  57 SW20G25   29.79S
CHEROKEE *     PTSUNNY   71  65  81 SW10G18   29.76S
DENISON *      SUNNY     73  61  64 S12G20    29.77S
LE MARS *      MOSUNNY   72  63  73 SW10      29.76S
ORANGE CITY *  MOSUNNY   66  61  82 SW6       29.75F
SHELDON *      CLOUDY    68  43  40 W9        29.75F
SIOUX CITY     MOSUNNY   73  61  65 SW13      29.76S
6HR MIN TEMP:  59; 6HR MAX TEMP:  73; 6HR PCP: TRACE;

SPENCER        PTSUNNY   70  63  78 W15G22    29.76F
6HR MIN TEMP:  61; 6HR MAX TEMP:  72; 6HR PCP: TRACE;

STORM LAKE *   PTSUNNY   70  63  78 SW17      29.79S
$$

IAZ055>058-069>071-079>083-090>094-251900-
   SOUTHWEST IOWA

CITY           SKY/WX    TMP DP  RH WIND       PRES   REMARKS
ATLANTIC *     MOSUNNY   73  61  64 S18       29.82R
AUDUBON *      SUNNY     73  61  64 S13G20    29.82S
CLARINDA *     PTSUNNY   77  63  61 S20G26    29.85R
COUNCIL BLFS * MOSUNNY   75  61  60 SW15      29.82R
CRESTON *      CLOUDY    73  61  64 SW15G26   29.85R
HARLAN  *      MOSUNNY   72  64  78 S18G24    29.84R
LAMONI         SUNNY     77  62  59 S16G24    29.86S
6HR MIN TEMP:  64; 6HR MAX TEMP:  77; 6HR PCP:  0.01;

RED OAK *      PTSUNNY   75  63  64 SW12G18   29.83R
SHENANDOAH *   CLOUDY    75  63  64 SW16G24   29.84R
$$

IAZ047>049-059>061-072>074-084-251900-
   CENTRAL IOWA

CITY           SKY/WX    TMP DP  RH WIND       PRES   REMARKS
AMES           MOSUNNY   75  63  66 S16       29.81S
6HR MIN TEMP:  63; 6HR MAX TEMP:  76; 6HR PCP:  0.01;

ANKENY *       MOSUNNY   75  63  64 SW13G22   29.82R
CHARITON *     MOSUNNY   75  63  64 S18G24    29.85S
DES MOINES     MOSUNNY   77  59  53 SW17G26   29.83R
6HR MIN TEMP:  64; 6HR MAX TEMP:  78;

GRINNELL*      MOSUNNY   75  61  60 S18G25    29.85S
KNOXVILLE *    MOSUNNY   77  59  53 S18       29.84R
MARSHALLTOWN   SUNNY     75  63  66 SW17G23   29.81S
6HR MIN TEMP:  63; 6HR MAX TEMP:  75; 6HR PCP:  0.05;

PELLA *        SUNNY     77  66  69 S17       29.86S
PERRY *        PTSUNNY   75  60  58 S23G30    29.81S
$$

IAZ004>006-015-016-023>025-035-036-251900-
   NORTH CENTRAL IOWA

CITY           SKY/WX    TMP DP  RH WIND       PRES   REMARKS
ALGONA *       MOSUNNY   70  64  83 SW13G20   29.76F
CLARION *      PTSUNNY   72  68  88 SW23      29.78S
ESTHERVILLE    PTSUNNY   68  61  78 SW15      29.74F
6HR MIN TEMP:  59; 6HR MAX TEMP:  69;

FORT DODGE *   PTSUNNY   72  63  73 SW14      29.79F
MASON CITY     PTSUNNY   72  64  76 W13       29.79S
6HR MIN TEMP:  62; 6HR MAX TEMP:  73; 6HR PCP: TRACE;

FOREST CITY *  PTSUNNY   68  61  77 SW14G20   29.77F
IOWA FALLS *   CLOUDY    72  63  73 SW16G23   29.81S
$$

IAZ007>011-017>019-026>030-037>042-050>054-066-251900-
   NORTHEAST IOWA

CITY           SKY/WX    TMP DP  RH WIND       PRES   REMARKS
CEDAR RAPIDS   PTSUNNY   74  64  71 SW18G26   29.85R
6HR MIN TEMP:  63; 6HR MAX TEMP:  74; 6HR PCP:  0.01;

CHARLES CITY * PTSUNNY   73  68  83 SW22G28   29.79S
CLINTON *      PTSUNNY   73  63  68 SW21      29.89S
DECORAH *      CLOUDY    72  63  73 SW14G22   29.78S
DUBUQUE        MOSUNNY   72  64  76 SW15      29.83F
6HR MIN TEMP:  63; 6HR MAX TEMP:  73; 6HR PCP:  0.03;

MONTICELLO *   MOSUNNY   73  66  78 SW17G24   29.84S
OELWEIN *      PTSUNNY   73  64  73 SW21      29.81S
WATERLOO       PTSUNNY   75  63  66 SW18G25   29.80S
6HR MIN TEMP:  63; 6HR MAX TEMP:  75; 6HR PCP:  0.07;

$$

IAZ064-065-067-068-078-251900-
   EAST CENTRAL IOWA

CITY           SKY/WX    TMP DP  RH WIND       PRES   REMARKS
DAVENPORT      MOSUNNY   75  63  66 SW18      29.88F
6HR MIN TEMP:  64; 6HR MAX TEMP:  75; 6HR PCP: TRACE;

IOWA CITY      PTSUNNY   75  62  64 SW17G26   29.87S
6HR MIN TEMP:  63; 6HR MAX TEMP:  75; 6HR PCP:  0.02;

MT. PLEASANT * MOSUNNY   73  63  71 SW16G22   29.90S
MUSCATINE *    PTSUNNY   75  63  64 SW15G23   29.88S
QUAD CITIES    MOSUNNY   76  62  62 SW17G23   29.88S
6HR MIN TEMP:  66; 6HR MAX TEMP:  77; 6HR PCP: TRACE;

$$

IAZ062-063-075>077-085>089-095>099-251900-
   SOUTHEAST IOWA

CITY           SKY/WX    TMP DP  RH WIND       PRES   REMARKS
BURLINGTON     PTSUNNY   74  64  71 SW16G22   29.91F
6HR MIN TEMP:  64; 6HR MAX TEMP:  75; 6HR PCP:  0.01;

FAIRFIELD *    SUNNY     73  63  68 S17       29.88S
FORT MADISON * SUNNY     73  64  73 S16       29.92S
KEOKUK *       MOSUNNY   75  64  69 S14       29.91S
OSKALOOSA *      N/A     75  63  65 S13G18    29.87R
CENTERVILLE *  SUNNY     73  73 100 S16G22    29.90R
OTTUMWA        SUNNY     76  64  66 S16       29.86S
6HR MIN TEMP:  61; 6HR MAX TEMP:  76; 6HR PCP:  0.02;

WASHINGTON *   MOSUNNY   73  64  73 S18       29.89S
$$

ABBREVIATIONS USED IN REMARKS
   TC - TEMPERATURES IN CELSIUS
  WCI - WIND CHILL INDEX
   HX - HEAT INDEX
  VSB - VISIBILITY
$$




USA.gov is the U.S. government's official web portal to all federal, state and local government web resources and services.